Погода в Бырдалыке

Погода в Бырдалыке : погода сейчас, прогноз погоды и архив. Всё, что Вы хотите узнать о погоде в Бырдалыке!

Хотите узнать прогноз погоды в Бырдалыке? Тогда Вам сюда: Погода в Бырдалыке

Поиск расширенной информации на нашем сайте:

Другие новости

Новости СМИ2

Главная страница сайта

Новости сайта

03.07.2017

Напоминаем, что на нашем специализированном сайте Метеоцентр.Азия вы можете получить высокодетализированные автоматические прогнозы погоды по пунктам России, СНГ и мира в авиационном формате (включающие направление и скорость ветра, видимость, явления погоды, количество и форму облачности, нижнюю и верхнюю границу облачности).


Погода в Бырдалыке - сегодня

Время (UTC), дата Ветер
(°,м/с) 
Видим.   Явления Облачность Т
(°С)
Тd
(°С)
f(%) Тe
(°С)
Pmin
(гПа)
dP
(гПа)
Po
(мм)
O2
(г/м3)
Тmin Tmax R s Состояние
почвы
21 21.11.17 120 (ЮВ) 50000 м    н/о 
+4.5 +5    742  294           
00 22.11.17 140 (ЮВ) 10 км    ясно 
+3.3 -3.8 60 +3  1016.3  -0.8  743  296           
03 22.11.17 140 (ЮВ) 10 км    ясно 
+3.5 -2.8 63 +2  1016.4  0.1  743  296           
06 22.11.17 160 (Ю) 10 км    ясно 
+12.4 -3.6 33 +12  1015.3  -0.3  742  286  +3.1         
09 22.11.17 160 (Ю) 10 км    ясно 
+21 -5.4 16 +21  1012.2  -2.4  741  278           
12 22.11.17 140 (ЮВ) 10 км    8/0 верхняя 
[Ci sp]
+18.6 -6 18 +20  1011.9  -0.5  740  280           
15 22.11.17 110 (В) 10 км    8/0 верхняя 
[Ci sp]
+14.3 -6.7 23 +14  1012.3  0.1  740  284    +21.3       
18 22.11.17 160 (Ю) 10 км    8/0 верхняя 
[Ci sp]
+10.8 -5.4 32 +11  1012.8  0.1  740  287    +21.3       
21 22.11.17 160 (Ю) 10 км    8/0 верхняя 
[Ci sp]
+11.7 -7.4 26 +11  1012.3  -0.4  740  287           
00 23.11.17 140 (ЮВ) 10 км    8/0 верхняя 
[Ci sp]
+11.8 -6.7 27 +12  1012.1  -0.2  740  286           
03 23.11.17 160 (Ю) 10 км    9/0 средняя 
[Ac und]
+12 -5.4 29 +12  1012.6  0.5  740  286           
06 23.11.17 160 (Ю) 10 км    8/0 верхняя 
[Ci sp]
+18.2 -3.6 22 +18  1012.1  0.1  740  280  +10.8         
09 23.11.17 160 (Ю) 10 км    ясно 
+23.6 -5 14 +24  1009.5  -2  739  274           
12 23.11.17 160 (Ю) 10 км    ясно 
+23 -5.7 14 +23  1009.1  -0.5  738  275           
15 23.11.17 160 (Ю) 10 км    ясно 
+16.3 -6.4 20 +17  1010.7  739  282    +23.8       
18 23.11.17 160 (Ю) 10 км    ясно 
+11.6 -3.6 34 +13  1011.7  0.5  740  286    +23.8       
21 23.11.17 160 (Ю) 10 км    8/0 верхняя 
[Ci sp]
+10.8 -4.4 34 +12  1011.5  -0.3  739  287           
00 24.11.17 320 (СЗ) 10 км    8/8 1000 м 
[Sc]
+13.8 -2.7 32 +13  1014.4  3.2  742  285           
03 24.11.17 360 (С) 10 км  слаб. ливневой дождь  9/9 600 м кучево-дожд. 
[Cb cap]
+10.7 +5.5 70 +11  1015.5  0.9  742  287      0.4     
06 24.11.17 160 (Ю) 10 км  в посл. час ливневой дождь  9/9 600 м кучево-дожд. 
[Cb cap]
+12.7 +7.8 72 +13  1016.8  1.4  743  285  +10.4    0.4     
09 24.11.17 230 (ЮЗ) 10 км    9/9 1000 м 
[Sc]
+15.4 +8.8 65 +16  1017.1  0.5  744  282           
12 24.11.17 050 (СВ) 10 км    9/9 1000 м 
[Sc]
+13.2 +9.7 79 +15  1017  -0.2  744  284           
15 24.11.17 050 (СВ) 10 км    9/9 1000 м 
[Sc]
+11.6 +8.8 83 +12  1017.6  0.3  744  286    +15.6     
18 24.11.17 290 (З) 10 км    4/4 1000 м верхняя 
[Ci sp]
+9.4 +7.7 89 +9  1017.1  -0.6  743  288    +15.6     
21 24.11.17 290 (З) 10 км    8/0 верхняя 
[Ci sp]
+7.2 +5.6 90 +8  1015.9  -1.3  743  291           
Время (UTC), дата Ветер
(°,м/с) 
Видим.   Явления Облачность Т
(°С)
Тd
(°С)
f(%) Тe
(°С)
Pmin
(гПа)
dP
(гПа)
Po
(мм)
O2
(г/м3)
Тmin Tmax R s Состояние
почвы

Для получения пояснительной информации подведите курсор к названию столбца.

ПОГОДА в Бырдалыке - архив

Всё, что Вы хотите узнать о погоде в Бырдалыке - удобно и подробно!

Выберите нужную дату (начиная с 1 января 2015* года) и нажмите кнопку "Найти".
Будут отображены архивные сводки погоды по пункту Бырдалык, начиная с указанной даты.


Отображать данные в формате CSV (для использования в таблицах Excel)


Внимание! Наш архив погоды предназначен исключительно для личного некоммерческого использования в познавательных целях. Если Вам необходимы официальные справки о состоянии погоды (для производственных, юридических, коммерческих и т.п. целей), обращайтесь в органы Росгидромета.

*Примечание: данная дата относится к архиву по метеостанциям СССР (Россия, СНГ, Балтия).
Архив по метеостанциям Зарубежной Европы и Азии (кроме Китая) хранится 10 дней, по другим регионам земного шара (Китай, Африка, Америка, Австралия, Океания) - 1 день.

Бырдалык - район местоположения метеостанции


Название, широта, долгота, высота метеостанции:
Бырдалык 38.5°ш. 64.4°д. 212 м над ур. моря [Туркменистан]

Дополнительная информация

В oтличие oт бoльшинства пoгoдных сайтoв мы публикуем пoдрoбную метеoинфoрмацию в детальнoм прoфессиoнальнoм фoрмате.

Характеристики температуры и влажнoсти вoздуха измеряются на высoте 2 м в тени вдали oт зданий и деревьев.
Скoрoсть ветра измеряется на высoте 10 м (на урoвне рoста челoвека скoрoсть ветра ниже в 1.5-2 раза). Если метеoстанция нахoдится в гoрoде или в лесу, тo скoрoсть ветра занижена на 2-4 м/с пo сравнению с oткрытым местoм. Скoрoсть ветра над акватoриями крупных рек и oзёр, а также на вершинах хoлмoв на 2-5 м/с выше, чем в oбычных услoвиях.
Атмoсфернoе давление в разных тoчках местнoсти мoжет значительнo oтличаться oт давления на метеoстанции, в зависимoсти oт услoвий рельефа (при пoдъёме на 10 м давление пoнижается примернo на 1 мм рт.ст.).